This demonstration page uses our WeatherBlox Daily Observations layout. Learn more.

Left ArrowRight Arrow

Hourly Observations for October 28, 2016

Temp ( °F °C ) Dew Point ( °F °C ) Humidity (%) Winds ( mph kmh ) Pressure ( in mb ) Visibility ( mi km ) Precip ( " mm )
12:51 am 00:51 Clear 66 18.9 37 2.8 34 34 SE 6 9 29.93 1014 10 16 0.00 0.00
1:51 am 01:51 Clear 65 18.3 38 3.3 37 37 SE 3 6 29.93 1014 10 16 0.00 0.00
2:51 am 02:51 Clear 63 17.2 40 4.4 43 43 ESE 6 9 29.92 1013 10 16 0.00 0.00
3:51 am 03:51 Clear with Light Rain 69 20.6 38 3.3 32 32 ESE 8 13 29.90 1013 10 16 0.00 0.03
4:51 am 04:51 Clear 69 20.6 37 2.8 31 31 E 9 15 29.91 1013 10 16 0.00 0.03
5:51 am 05:51 Clear 65 18.3 38 3.3 37 37 E 9 15 29.93 1014 10 16 0.00 0.00
6:51 am 06:51 Sunny 65 18.3 38 3.3 37 37 SE 13 20 29.94 1014 10 16 0.00 0.00
7:51 am 07:51 Sunny 68 20 39 3.9 35 35 SE 14 22 29.97 1015 10 16 0.00 0.00
8:51 am 08:51 Sunny 70 21.1 38 3.3 31 31 SSE 10 17 29.98 1015 10 16 0.00 0.00
9:51 am 09:51 Sunny 76 24.4 40 4.4 27 27 SE 9 15 29.98 1015 10 16 0.00 0.00
10:51 am 10:51 Sunny 80 26.7 40 4.4 24 24 ESE 12 19 29.96 1014 10 16 0.00 0.00
11:51 am 11:51 Sunny 83 28.3 40 4.4 22 22 E 9 15 29.93 1013 10 16 0.00 0.00
12:51 pm 12:51 Sunny 86 30 41 5 20 20 ESE 8 13 29.89 1012 10 16 0.00 0.00
1:51 pm 13:51 Sunny 86 30 40 4.4 20 20 Calm 29.87 1012 10 16 0.00 0.00
2:51 pm 14:51 Sunny 88 31.1 40 4.4 18 18 Calm 29.86 1011 10 16 0.00 0.00
3:51 pm 15:51 Mostly Sunny 86 30 40 4.4 20 20 Calm 29.84 1011 10 16 0.00 0.00
4:51 pm 16:51 Mostly Cloudy 83 28.3 44 6.7 25 25 WNW 5 7 29.85 1011 10 16 0.00 0.00
5:51 pm 17:51 Clear 78 25.6 43 6.1 29 29 NNW 6 9 29.88 1012 10 16 0.00 0.00
6:51 pm 18:51 Clear 75 23.9 43 6.1 32 32 NNW 6 9 29.90 1012 10 16 0.00 0.00
7:51 pm 19:51 Mostly Clear 73 22.8 42 5.6 33 33 NNW 5 7 29.90 1013 10 16 0.00 0.00
8:51 pm 20:51 Clear 71 21.7 42 5.6 35 35 ESE 6 9 29.91 1013 10 16 0.00 0.00
9:51 pm 21:51 Clear 67 19.4 43 6.1 42 42 Calm 29.93 1013 10 16 0.00 0.00
10:51 pm 22:51 Mostly Clear 65 18.3 42 5.6 43 43 Calm 29.93 1014 10 16 0.00 0.00
11:51 pm 23:51 Mostly Clear 62 16.7 42 5.6 48 48 Calm 29.93 1014 10 16 0.00 0.00

Powered by AerisWeather